Weather History for Newport Airport, OR

Change the Weather History Date:

Saturday, January 19, 2013

  Actual Average Record
Temperature  
Mean Temperature 38 °F -  
Max Temperature 44 °F 48 °F 60 °F (2005)
Min Temperature 32 °F 40 °F 32 °F (2013)
Degree Days  
Heating Degree Days 27    
Moisture  
Dew Point 37 °F    
Average Humidity 93    
Maximum Humidity 100    
Minimum Humidity 70    
Precipitation  
Precipitation 0.00 in - - ()
Sea Level Pressure  
Sea Level Pressure 30.29 in    
Wind  
Wind Speed 4 mph (East)    
Max Wind Speed 8 mph    
Max Gust Speed -    
Visibility 5 miles    
Events Fog    
Averages and records for this station are not official NWS values.
T = Trace of Precipitation, MM = Missing Value Source: NWS Daily Summary

Daily Weather History Graph

Daily Weather History Graph

Search for Another Location

Airport:

Trip Planner

Search our weather history database for the weather conditions in past years. The results will help you decide how hot, cold, wet, or windy it might be!

Date:

Astronomy

Jan. 19, 2013 Rise Set
Actual Time 7:46 AM PST 5:07 PM PST
Civil Twilight 7:14 AM PST 5:39 PM PST
Nautical Twilight 6:38 AM PST 6:15 PM PST
Astronomical Twilight 6:04 AM PST 6:50 PM PST
Moon 11:39 AM PST (1/19) 1:23 AM PST (1/19)
Length of Visible Light 10h 25m
Length of Day
9h 21m
First Quarter, 58% of the Moon is Illuminated
Jan 19
First Quarter
Jan 26
Full
Feb 3
Last Quarter
Feb 9
New
Feb 17
First Quarter

Hourly Weather History & Observations

Time (PST) Temp. Windchill Dew Point Humidity Pressure Visibility Wind Dir Wind Speed Gust Speed Precip Events Conditions
12:15 AM 32.0 °F 28.7 °F 32.0 °F 100% 30.24 in 10.0 mi NE 3.5 mph - N/A   Clear
12:35 AM 32.0 °F - 32.0 °F 100% 30.24 in 7.0 mi Calm Calm - N/A   Clear
12:55 AM 32.0 °F 28.7 °F 32.0 °F 100% 30.24 in 10.0 mi ESE 3.5 mph - N/A   Clear
1:15 AM 32.0 °F 28.7 °F 32.0 °F 100% 30.24 in 10.0 mi East 3.5 mph - N/A   Clear
1:35 AM 32.0 °F 27.5 °F 32.0 °F 100% 30.24 in 10.0 mi East 4.6 mph - N/A   Clear
1:55 AM 33.8 °F 27.0 °F 32.0 °F 93% 30.24 in 10.0 mi East 8.1 mph - N/A   Clear
2:15 AM 35.6 °F 29.9 °F 32.0 °F 87% 30.25 in 10.0 mi East 6.9 mph - N/A   Clear
2:35 AM 35.6 °F 29.2 °F 32.0 °F 87% 30.25 in 10.0 mi East 8.1 mph - N/A   Clear
2:55 AM 41.0 °F 38.0 °F 32.0 °F 70% 30.25 in 10.0 mi ESE 4.6 mph - N/A   Clear
3:15 AM 33.8 °F 27.7 °F 30.2 °F 87% 30.25 in 10.0 mi East 6.9 mph - N/A   Clear
3:35 AM 35.6 °F 32.8 °F 32.0 °F 87% 30.25 in 10.0 mi ENE 3.5 mph - N/A   Clear
3:55 AM 33.8 °F 29.6 °F 32.0 °F 93% 30.24 in 10.0 mi East 4.6 mph - N/A   Clear
5:15 AM 37.4 °F - 32.0 °F 81% 30.24 in 10.0 mi Calm Calm - N/A   Clear
5:55 AM 39.2 °F 35.0 °F 32.0 °F 75% 30.25 in 10.0 mi East 5.8 mph - N/A   Clear
6:15 AM 39.2 °F 34.2 °F 32.0 °F 75% 30.25 in 10.0 mi East 6.9 mph - N/A   Clear
6:35 AM 39.2 °F 34.2 °F 32.0 °F 75% 30.25 in 10.0 mi East 6.9 mph - N/A   Clear
7:35 AM 37.4 °F 34.9 °F 32.0 °F 81% 30.26 in 10.0 mi ESE 3.5 mph - N/A   Clear
7:55 AM 37.4 °F 33.8 °F 32.0 °F 81% 30.27 in 10.0 mi ESE 4.6 mph - N/A   Clear
8:15 AM 35.6 °F - 30.2 °F 81% 30.27 in 10.0 mi Calm Calm - N/A   Clear
8:35 AM 33.8 °F 30.8 °F 32.0 °F 93% 30.29 in 10.0 mi ESE 3.5 mph - N/A   Clear
8:55 AM 37.4 °F - 32.0 °F 81% 30.29 in 10.0 mi Calm Calm - N/A   Clear
9:15 AM 39.2 °F - 33.8 °F 81% 30.30 in 10.0 mi Calm Calm - N/A   Clear
9:35 AM 41.0 °F 38.0 °F 33.8 °F 76% 30.31 in 7.0 mi South 4.6 mph - N/A   Clear
9:55 AM 41.0 °F 38.0 °F 37.4 °F 87% 30.32 in 2.0 mi South 4.6 mph - N/A   Scattered Clouds
10:15 AM 41.0 °F 38.0 °F 39.2 °F 93% 30.32 in 0.2 mi SSW 4.6 mph - N/A Fog Fog
10:35 AM 41.0 °F 39.0 °F 39.2 °F 93% 30.33 in 0.5 mi South 3.5 mph - N/A Fog Fog
10:55 AM 41.0 °F 39.0 °F 41.0 °F 100% 30.32 in 4.0 mi South 3.5 mph - N/A   Mostly Cloudy
11:35 AM 42.8 °F 39.3 °F 41.0 °F 93% 30.31 in 2.5 mi SW 5.8 mph - N/A   Mist
11:55 AM 44.6 °F 42.2 °F 41.0 °F 87% 30.31 in 3.0 mi WSW 4.6 mph - N/A   Mist
12:15 PM 44.6 °F 42.2 °F 41.0 °F 87% 30.30 in 4.0 mi West 4.6 mph - N/A   Clear
12:35 PM 44.6 °F 42.2 °F 41.0 °F 87% 30.30 in 4.0 mi West 4.6 mph - N/A   Scattered Clouds
12:55 PM 42.8 °F 40.1 °F 41.0 °F 93% 30.30 in 3.0 mi WSW 4.6 mph - N/A   Overcast
1:15 PM 42.8 °F 40.1 °F 41.0 °F 93% 30.29 in 4.0 mi SSW 4.6 mph - N/A   Overcast
1:35 PM 42.8 °F 40.1 °F 41.0 °F 93% 30.29 in 3.0 mi West 4.6 mph - N/A   Overcast
1:55 PM 41.0 °F 39.0 °F 41.0 °F 100% 30.29 in 3.0 mi West 3.5 mph - N/A   Overcast
2:15 PM 42.8 °F 40.1 °F 41.0 °F 93% 30.29 in 3.0 mi West 4.6 mph - N/A   Overcast
2:35 PM 41.0 °F - 41.0 °F 100% 30.29 in 4.0 mi Calm Calm - N/A   Overcast
2:55 PM 41.0 °F 39.0 °F 41.0 °F 100% 30.29 in 4.0 mi SW 3.5 mph - N/A   Overcast
3:15 PM 41.0 °F - 39.2 °F 93% 30.29 in 4.0 mi Calm Calm - N/A   Overcast
3:35 PM 41.0 °F - 41.0 °F 100% 30.29 in 2.5 mi Calm Calm - N/A   Overcast
3:55 PM 41.0 °F - 41.0 °F 100% 30.29 in 2.0 mi Calm Calm - N/A   Overcast
4:15 PM 41.0 °F - 39.2 °F 93% 30.29 in 1.5 mi Calm Calm - N/A   Overcast
4:35 PM 41.0 °F 39.0 °F 41.0 °F 100% 30.30 in 1.0 mi West 3.5 mph - N/A   Overcast
4:55 PM 41.0 °F - 39.2 °F 93% 30.30 in 0.8 mi Calm Calm - N/A   Overcast
5:15 PM 41.0 °F - 41.0 °F 100% 30.30 in 1.5 mi Calm Calm - N/A   Overcast
5:35 PM 41.0 °F - 39.2 °F 93% 30.30 in 0.5 mi Calm Calm - N/A Fog Fog
5:55 PM 41.0 °F 37.1 °F 41.0 °F 100% 30.31 in 0.8 mi NNW 5.8 mph - N/A   Overcast
6:15 PM 41.0 °F - 39.2 °F 93% 30.31 in 0.5 mi Calm Calm - N/A Fog Fog
6:35 PM 41.0 °F - 41.0 °F 100% 30.31 in 0.5 mi Calm Calm - N/A Fog Fog
6:55 PM 41.0 °F - 41.0 °F 100% 30.31 in 1.0 mi Calm Calm - N/A   Overcast
7:15 PM 41.0 °F 39.0 °F 41.0 °F 100% 30.32 in 0.8 mi NE 3.5 mph - N/A   Overcast
7:35 PM 41.0 °F 37.1 °F 41.0 °F 100% 30.32 in 1.2 mi NE 5.8 mph - N/A   Overcast
7:55 PM 39.2 °F 33.6 °F 39.2 °F 100% 30.32 in 1.0 mi ENE 8.1 mph - N/A   Overcast
8:15 PM 39.2 °F 34.2 °F 39.2 °F 100% 30.32 in 1.0 mi ENE 6.9 mph - N/A   Overcast
8:35 PM 39.2 °F 34.2 °F 37.4 °F 93% 30.32 in 0.8 mi NE 6.9 mph - N/A   Overcast
8:55 PM 39.2 °F 35.0 °F 37.4 °F 93% 30.32 in 1.0 mi ENE 5.8 mph - N/A   Overcast
9:15 PM 39.2 °F 35.9 °F 37.4 °F 93% 30.32 in 1.5 mi NE 4.6 mph - N/A   Overcast
9:35 PM 37.4 °F 34.9 °F 37.4 °F 100% 30.32 in 2.0 mi NE 3.5 mph - N/A   Overcast
9:55 PM 37.4 °F 32.8 °F 37.4 °F 100% 30.32 in 3.0 mi ENE 5.8 mph - N/A   Overcast
10:15 PM 37.4 °F 33.8 °F 37.4 °F 100% 30.32 in 3.0 mi NE 4.6 mph - N/A   Overcast
10:35 PM 37.4 °F 34.9 °F 37.4 °F 100% 30.32 in 3.0 mi ENE 3.5 mph - N/A   Overcast
10:55 PM 35.6 °F - 35.6 °F 100% 30.32 in 3.0 mi Calm Calm - N/A   Overcast
11:15 PM 35.6 °F - 35.6 °F 100% 30.32 in 2.5 mi Calm Calm - N/A   Scattered Clouds
11:35 PM 35.6 °F - 35.6 °F 100% 30.32 in 1.5 mi Calm Calm - N/A   Mist
11:55 PM 33.8 °F - 33.8 °F 100% 30.32 in 4.0 mi Calm Calm - N/A   Clear